Location: Santiago
(33.4378°S, 70.6505°W)
Time: 22:26:49
(UTC+00:00)

ISS - Pass Details

Date: 21 November 2023
Orbit: 415 x 417 km, 51.6° (Epoch: 04 December)

Event Time Altitude Azimuth Distance (km) Brightness Sun altitude
Exits shadow 08:40:35 13° 318° (NW) 1,326 -1.8 -9.7°
Maximum altitude 08:43:31 80° 44° (NE) 432 -3.7 -9.2°
Drops below altitude 10° 08:46:55 10° 132° (SE) 1,515 0.7 -8.6°
Sets 08:49:02 0° 132° (SE) 2,385 2.1 -8.2°
